Location: Jetmore Oil Field
(38.1181°N, 99.9337°W)
Time: 09:11:53
(UTC+00:00)

Cosmos 1862 - Pass Details

Date: 17 February 2020
Orbit: 539 x 555 km, 82.5° (Epoch: 10 April)

Event Time Altitude Azimuth Distance (km) Brightness Sun altitude
Rises 01:17:01 0° 175° (S) 2,708 6.9 -12.0°
Reaches altitude 10° 01:19:12 10° 170° (S) 1,816 5.9 -12.5°
Maximum altitude 01:23:06 52° 94° (E) 684 3.4 -13.2°
Drops below altitude 10° 01:26:59 10° 18° (NNE) 1,821 5.7 -14.0°
Sets 01:29:11 0° 13° (NNE) 2,715 6.7 -14.4°
